W4UWO Weather Reports


time (UTC)temp
C
wind
direction
speed
KPH
gust
KPH
rain 1hr
cm
rain 24hr
cm
rain mn
cm
humidity
%
barometer
mb
20260906125905 25 83 3.2 4.8 0.00 0.00 0.00 79 1015.2
20260906125402 25 146 0.0 1.6 0.00 0.00 0.00 79 1015.1
20260906124856 25 137 1.6 1.6 0.00 0.00 0.00 79 1015.1
20260906124353 25 144 0.0 0.0 0.00 0.00 0.00 80 1015.0
20260906123852 25 151 1.6 1.6 0.00 0.00 0.00 80 1015.0
20260906123347 24 150 0.0 0.0 0.00 0.00 0.00 80 1014.9
20260906122846 24 159 0.0 0.0 0.00 0.00 0.00 82 1014.9
20260906122341 24 142 1.6 1.6 0.00 0.00 0.00 82 1014.8
20260906121838 23 155 1.6 1.6 0.00 0.00 0.00 83 1014.7
20260906121334 23 155 0.0 0.0 0.00 0.00 0.00 82 1014.8
20260906120830 23 168 0.0 0.0 0.00 0.00 0.00 84 1014.7
20260906120326 22 167 0.0 0.0 0.00 0.00 0.00 87 1014.5
20260906115822 22 167 1.6 1.6 0.00 0.00 0.00 88 1014.5
20260906115317 22 162 1.6 1.6 0.00 0.00 0.00 87 1014.5
20260906114816 22 162 0.0 0.0 0.00 0.00 0.00 87 1014.4
20260906114311 22 162 0.0 0.0 0.00 0.00 0.00 87 1014.2
20260906113806 22 164 0.0 0.0 0.00 0.00 0.00 87 1014.1
20260906113306 22 168 0.0 0.0 0.00 0.00 0.00 88 1014.1
20260906112801 22 168 0.0 0.0 0.00 0.00 0.00 89 1014.1
20260906112257 22 168 0.0 0.0 0.00 0.00 0.00 89 1014.1
20260906111756 22 168 0.0 0.0 0.00 0.00 0.00 88 1014.0
20260906111255 22 168 0.0 0.0 0.00 0.00 0.00 88 1013.8
20260906110751 22 168 0.0 0.0 0.00 0.00 0.00 88 1013.8
20260906110247 22 168 0.0 0.0 0.00 0.00 0.00 88 1013.9
20260906105746 22 168 0.0 0.0 0.00 0.00 0.00 87 1013.8
20260906105242 22 169 0.0 0.0 0.00 0.00 0.00 87 1013.7
20260906104737 22 169 1.6 1.6 0.00 0.00 0.00 87 1013.7
20260906104236 22 168 0.0 0.0 0.00 0.00 0.00 86 1013.8
20260906103733 22 168 1.6 1.6 0.00 0.00 0.00 86 1013.6
20260906103228 22 169 0.0 0.0 0.00 0.00 0.00 85 1013.7
20260906102724 22 168 0.0 0.0 0.00 0.00 0.00 84 1013.7
20260906102223 23 169 0.0 0.0 0.00 0.00 0.00 84 1013.8
20260906101718 23 169 0.0 0.0 0.00 0.00 0.00 82 1013.7
20260906101213 23 169 0.0 0.0 0.00 0.00 0.00 81 1013.7
20260906100708 23 169 0.0 0.0 0.00 0.00 0.00 81 1013.7
20260906100208 23 171 0.0 0.0 0.00 0.00 0.00 82 1013.5
20260906095703 23 174 0.0 0.0 0.00 0.00 0.00 82 1013.7
20260906095159 23 174 0.0 0.0 0.00 0.00 0.00 82 1013.6
20260906094657 23 174 1.6 0.0 0.00 0.00 0.00 81 1013.7
20260906094153 23 174 0.0 0.0 0.00 0.00 0.00 80 1013.6
20260906093649 23 174 0.0 0.0 0.00 0.00 0.00 80 1013.5
20260906093149 23 174 0.0 0.0 0.00 0.00 0.00 80 1013.7
20260906092645 23 175 1.6 1.6 0.00 0.00 0.00 80 1013.6
20260906092144 23 173 0.0 0.0 0.00 0.00 0.00 81 1013.3
20260906091641 23 183 0.0 0.0 0.00 0.00 0.00 81 1013.5
20260906091138 23 183 1.6 1.6 0.00 0.00 0.00 80 1013.6
20260906090633 23 169 0.0 0.0 0.00 0.00 0.00 80 1013.5
20260906090132 24 167 1.6 1.6 0.00 0.00 0.00 79 1013.5
20260906085632 24 153 3.2 3.2 0.00 0.00 0.00 79 1013.6
20260906085132 24 193 1.6 1.6 0.00 0.00 0.00 79 1013.6
20260906084632 24 216 1.6 1.6 0.00 0.00 0.00 79 1013.6
20260906084131 24 222 3.2 3.2 0.00 0.00 0.00 79 1013.4
20260906083627 23 208 1.6 1.6 0.00 0.00 0.00 80 1013.5
20260906083127 23 211 3.2 3.2 0.00 0.00 0.00 81 1013.3
20260906082623 23 219 0.0 0.0 0.00 0.00 0.00 81 1013.5
20260906082118 24 219 1.6 1.6 0.00 0.00 0.00 80 1013.5
20260906081614 24 212 0.0 0.0 0.00 0.00 0.00 80 1013.6
20260906081108 24 213 0.0 0.0 0.00 0.00 0.00 79 1013.4
20260906080605 24 219 0.0 0.0 0.00 0.00 0.00 79 1013.3
20260906075601 24 186 4.8 4.8 0.00 0.00 0.00 78 1013.5
20260906075055 25 221 4.8 6.4 0.00 0.00 0.00 77 1013.3
20260906074550 25 169 6.4 6.4 0.00 0.00 0.00 75 1013.4
20260906074049 25 187 1.6 1.6 0.00 0.00 0.00 75 1013.5
20260906073544 25 191 3.2 3.2 0.00 0.00 0.00 75 1013.7
20260906073040 25 195 0.0 0.0 0.00 0.00 0.00 75 1013.5
20260906072535 25 220 3.2 3.2 0.00 0.00 0.00 75 1013.7
20260906072031 25 207 1.6 1.6 0.00 0.00 0.00 74 1013.5
20260906071527 25 213 3.2 3.2 0.00 0.00 0.00 73 1013.6
20260906071022 25 196 1.6 1.6 0.00 0.00 0.00 73 1013.7
20260906070518 25 207 3.2 3.2 0.00 0.00 0.00 72 1013.6
20260906070014 25 193 1.6 1.6 0.00 0.00 0.00 72 1013.6
20260906065513 25 178 3.2 1.6 0.00 0.00 0.00 72 1013.8
20260906065009 25 202 0.0 0.0 0.00 0.00 0.00 72 1013.7
20260906064505 26 206 1.6 1.6 0.00 0.00 0.00 71 1013.6
20260906064000 26 200 4.8 4.8 0.00 0.00 0.00 71 1013.6
20260906063456 26 230 3.2 3.2 0.00 0.00 0.00 70 1013.7
20260906062955 26 130 4.8 4.8 0.00 0.00 0.00 69 1013.6
20260906062450 26 188 3.2 3.2 0.00 0.00 0.00 69 1013.5
20260906061945 26 187 3.2 3.2 0.00 0.00 0.00 70 1013.7
20260906061442 26 206 3.2 4.8 0.00 0.00 0.00 72 1013.8
20260906060941 26 174 3.2 3.2 0.00 0.00 0.00 73 1014.0
20260906060438 26 189 3.2 6.4 0.00 0.00 0.00 74 1014.2
20260906055935 26 185 3.2 3.2 0.00 0.00 0.00 76 1014.3
20260906055431 25 187 3.2 3.2 0.00 0.00 0.00 78 1014.5
20260906054926 25 155 1.6 1.6 0.00 0.00 0.00 77 1014.5
20260906054420 25 156 0.0 0.0 0.00 0.00 0.00 78 1014.5
20260906053916 25 71 3.2 3.2 0.00 0.00 0.00 78 1014.4
20260906053412 25 198 1.6 1.6 0.00 0.00 0.00 77 1014.4
20260906052908 25 200 1.6 1.6 0.00 0.00 0.00 77 1014.6
20260906052404 26 170 1.6 1.6 0.00 0.00 0.00 76 1014.4
20260906051901 26 142 0.0 0.0 0.00 0.00 0.00 75 1014.7
20260906051400 26 148 0.0 0.0 0.00 0.00 0.00 75 1014.4
20260906050856 26 152 0.0 0.0 0.00 0.00 0.00 75 1014.4
20260906050351 26 148 1.6 1.6 0.00 0.00 0.00 74 1014.2
20260906045850 26 147 1.6 1.6 0.00 0.03 0.03 75 1014.6
20260906045349 26 149 0.0 0.0 0.00 0.03 0.03 77 1014.3
20260906044846 26 95 6.4 6.4 0.00 0.03 0.03 77 1014.7
20260906044346 26 125 3.2 4.8 0.00 0.03 0.03 79 1014.7
20260906043841 26 171 1.6 1.6 0.00 0.03 0.03 80 1014.6
20260906043337 26 93 4.8 4.8 0.00 0.03 0.03 79 1014.6
20260906042832 26 122 1.6 1.6 0.00 0.03 0.03 80 1014.5
20260906042331 26 145 1.6 1.6 0.00 0.03 0.03 80 1014.4
20260906041827 26 146 3.2 3.2 0.00 0.03 0.03 79 1014.0
20260906041322 26 181 0.0 0.0 0.00 0.03 0.03 79 1013.8
20260906040823 26 143 1.6 1.6 0.00 0.03 0.03 79 1014.1
20260906040318 27 143 3.2 3.2 0.00 0.03 0.03 78 1013.9
20260906035813 26 134 3.2 3.2 0.00 0.03 0.03 77 1013.8
20260906035308 27 165 1.6 1.6 0.00 0.03 0.03 76 1013.9
20260906034804 27 155 0.0 0.0 0.00 0.03 0.03 76 1013.9
20260906034304 26 106 3.2 3.2 0.00 0.03 0.03 76 1013.8
20260906033759 26 121 3.2 1.6 0.00 0.03 0.03 77 1014.1
20260906033259 26 110 3.2 3.2 0.00 0.03 0.03 77 1014.1
20260906032756 27 86 4.8 3.2 0.00 0.03 0.03 76 1014.0
20260906032256 26 133 4.8 4.8 0.00 0.03 0.03 76 1014.1
20260906031751 26 141 1.6 1.6 0.00 0.03 0.03 78 1014.1
20260906031247 25 66 3.2 3.2 0.00 0.03 0.03 82 1013.8
20260906030746 26 2 6.4 11.3 0.00 0.03 0.03 85 1014.0
20260906030242 26 151 1.6 1.6 0.00 0.03 0.03 83 1013.6
20260906025741 26 161 0.0 0.0 0.00 0.03 0.03 83 1013.4
20260906025235 26 161 0.0 0.0 0.00 0.03 0.03 83 1013.3
20260906024734 27 153 1.6 1.6 0.00 0.03 0.03 81 1013.3
20260906024233 27 165 0.0 0.0 0.00 0.03 0.03 80 1013.1
20260906023729 27 225 1.6 1.6 0.00 0.03 0.03 80 1013.1
20260906023225 27 208 1.6 1.6 0.00 0.03 0.03 78 1012.9
20260906022720 27 208 0.0 0.0 0.00 0.03 0.03 81 1012.8
20260906022215 27 207 1.6 1.6 0.00 0.03 0.03 79 1012.5
20260906021711 27 206 0.0 0.0 0.00 0.03 0.03 77 1012.6
20260906021210 27 206 0.0 0.0 0.00 0.03 0.03 77 1013.0
20260906020705 28 239 3.2 1.6 0.18 0.03 0.03 74 1013.0
20260906020159 28 240 1.6 1.6 0.18 0.03 0.03 67 1012.9
20260906015654 28 231 0.0 0.0 0.00 0.00 0.00 67 1012.9
20260906015153 28 234 1.6 1.6 0.00 0.00 0.00 67 1012.7
20260906014652 28 230 1.6 1.6 0.00 0.00 0.00 68 1012.7
20260906014149 27 232 1.6 1.6 0.00 0.00 0.00 71 1012.9
20260906013644 27 7 6.4 4.8 0.00 0.00 0.00 78 1012.8
20260906013140 27 228 1.6 1.6 0.00 0.00 0.00 81 1012.7
20260906012640 27 198 3.2 1.6 0.00 0.00 0.00 77 1012.6
20260906012140 27 179 0.0 0.0 0.00 0.00 0.00 77 1012.5
20260906011636 27 177 1.6 1.6 0.00 0.00 0.00 76 1012.4
20260906011130 28 172 0.0 0.0 0.00 0.00 0.00 71 1012.6
20260906010626 29 164 1.6 1.6 0.00 0.00 0.00 71 1012.4
20260906010122 29 153 0.0 0.0 0.00 0.00 0.00 62 1012.2
20260906005621 29 138 1.6 1.6 0.00 0.00 0.00 62 1012.4
20260906005121 29 176 1.6 1.6 0.00 0.00 0.00 63 1012.4
20260906004620 29 158 0.0 1.6 0.00 0.00 0.00 63 1012.3
20260906004115 29 154 0.0 0.0 0.00 0.00 0.00 63 1012.4
20260906003610 30 159 1.6 1.6 0.00 0.00 0.00 65 1012.6
20260906003107 30 172 1.6 1.6 0.00 0.00 0.00 62 1012.7
20260906002607 31 139 1.6 3.2 0.00 0.00 0.00 59 1013.2
20260906002102 31 102 6.4 11.3 0.00 0.00 0.00 54 1012.9
20260906001557 32 122 11.3 12.9 0.00 0.00 0.00 55 1013.0
20260906001057 32 99 6.4 12.9 0.00 0.00 0.00 54 1012.9
20260906000553 32 140 6.4 6.4 0.00 0.00 0.00 54 1012.6
20260906000048 33 101 3.2 3.2 0.00 0.00 0.00 53 1012.7
20260905235547 35 116 9.7 14.5 0.00 0.00 0.00 50 1012.3
20260905235042 35 135 3.2 3.2 0.00 0.00 0.00 46 1012.4
20260905234537 35 138 0.0 0.0 0.00 0.00 0.00 45 1012.5
20260905234032 36 227 1.6 1.6 0.00 0.00 0.00 44 1012.4
20260905233527 36 224 1.6 1.6 0.00 0.00 0.00 43 1012.0
20260905233027 36 236 3.2 3.2 0.00 0.00 0.00 43 1011.7
20260905232522 36 229 1.6 1.6 0.00 0.00 0.00 42 1011.8
20260905232018 37 200 1.6 1.6 0.00 0.00 0.00 42 1012.0
20260905231513 36 251 1.6 1.6 0.00 0.00 0.00 41 1011.9
20260905231009 37 216 3.2 3.2 0.00 0.00 0.00 41 1011.5
20260905230508 37 266 3.2 3.2 0.00 0.00 0.00 41 1011.8
20260905230007 37 295 3.2 4.8 0.00 0.00 0.00 41 1011.7
20260905225501 37 248 3.2 3.2 0.00 0.00 0.00 41 1012.1
20260905224956 36 230 1.6 1.6 0.00 0.00 0.00 41 1011.9
20260905224452 37 359 3.2 3.2 0.00 0.00 0.00 41 1011.8
20260905223951 37 229 3.2 3.2 0.00 0.00 0.00 40 1011.9
20260905223449 37 282 3.2 3.2 0.00 0.00 0.00 39 1012.0
20260905222944 37 238 4.8 4.8 0.00 0.00 0.00 39 1011.8
20260905222443 37 228 1.6 1.6 0.00 0.00 0.00 39 1011.9
20260905221939 37 273 8.0 11.3 0.00 0.00 0.00 38 1011.9
20260905221436 37 352 8.0 11.3 0.00 0.00 0.00 37 1011.8
20260905220932 38 251 4.8 6.4 0.00 0.00 0.00 37 1011.9
20260905220427 38 289 4.8 4.8 0.00 0.00 0.00 37 1011.8
20260905215926 38 232 3.2 1.6 0.00 0.00 0.00 37 1011.7
20260905215422 37 347 4.8 4.8 0.00 0.00 0.00 37 1011.7
20260905214918 38 223 1.6 1.6 0.00 0.00 0.00 37 1011.8
20260905214414 38 237 4.8 4.8 0.00 0.00 0.00 38 1011.8
20260905213914 38 48 3.2 3.2 0.00 0.00 0.00 38 1011.8
20260905213410 38 285 4.8 4.8 0.00 0.00 0.00 37 1011.8
20260905212905 38 218 3.2 1.6 0.00 0.00 0.00 37 1011.9
20260905212400 38 265 3.2 3.2 0.00 0.00 0.00 36 1011.9
20260905211859 38 223 3.2 3.2 0.00 0.00 0.00 37 1011.9
20260905211355 37 224 3.2 3.2 0.00 0.00 0.00 39 1012.0
20260905210851 38 242 8.0 9.7 0.00 0.00 0.00 38 1012.1
20260905210351 38 219 3.2 3.2 0.00 0.00 0.00 38 1012.2
20260905205850 38 230 3.2 3.2 0.00 0.00 0.00 38 1012.3
20260905205345 38 268 14.5 16.1 0.00 0.00 0.00 38 1012.4
20260905204844 38 346 8.0 6.4 0.00 0.00 0.00 39 1012.5
20260905204341 38 296 6.4 9.7 0.00 0.00 0.00 38 1012.4
20260905203839 38 281 1.6 3.2 0.00 0.00 0.00 38 1012.3
20260905203335 38 284 3.2 3.2 0.00 0.00 0.00 38 1012.6
20260905202831 38 316 6.4 6.4 0.00 0.00 0.00 37 1012.6
20260905202325 37 233 3.2 1.6 0.00 0.00 0.00 39 1012.7
20260905201821 38 354 16.1 17.7 0.00 0.00 0.00 38 1012.6
20260905201317 37 254 3.2 3.2 0.00 0.00 0.00 38 1012.8
20260905200816 38 267 4.8 6.4 0.00 0.00 0.00 37 1012.9
20260905200313 37 318 4.8 6.4 0.00 0.00 0.00 38 1013.0
20260905195810 38 265 6.4 11.3 0.00 0.00 0.00 38 1013.2
20260905195307 37 268 3.2 3.2 0.00 0.00 0.00 39 1013.2
20260905194801 38 307 4.8 4.8 0.00 0.00 0.00 38 1013.4
20260905194301 38 343 6.4 9.7 0.00 0.00 0.00 39 1013.2
20260905193800 38 222 4.8 4.8 0.00 0.00 0.00 38 1013.3
20260905193255 37 276 6.4 6.4 0.00 0.00 0.00 39 1013.4
20260905192750 37 236 4.8 4.8 0.00 0.00 0.00 40 1013.5
20260905192247 38 286 4.8 4.8 0.00 0.00 0.00 38 1013.5
20260905191746 38 327 4.8 4.8 0.00 0.00 0.00 39 1013.5
20260905191244 37 195 1.6 1.6 0.00 0.00 0.00 41 1013.4
20260905190743 36 186 0.0 0.0 0.00 0.00 0.00 43 1013.7
20260905190242 36 148 1.6 1.6 0.00 0.00 0.00 43 1013.7
20260905185736 37 331 6.4 6.4 0.00 0.00 0.00 43 1013.7
20260905185231 38 217 3.2 3.2 0.00 0.00 0.00 41 1013.7
20260905184731 37 221 3.2 3.2 0.00 0.00 0.00 41 1014.0
20260905184230 37 246 4.8 4.8 0.00 0.00 0.00 42 1013.9
20260905183729 36 239 6.4 6.4 0.00 0.00 0.00 43 1014.0
20260905183225 37 218 3.2 3.2 0.00 0.00 0.00 43 1014.1
20260905182725 37 286 9.7 12.9 0.00 0.00 0.00 42 1014.4
20260905182224 37 273 1.6 3.2 0.00 0.00 0.00 42 1014.5
20260905181720 37 258 6.4 11.3 0.00 0.00 0.00 40 1014.6
20260905181218 37 221 3.2 3.2 0.00 0.00 0.00 42 1014.4
20260905180713 37 265 3.2 3.2 0.00 0.00 0.00 42 1014.6
20260905180209 37 303 9.7 11.3 0.00 0.00 0.00 42 1014.4
20260905175708 37 196 3.2 3.2 0.00 0.00 0.00 42 1014.6
20260905175203 36 226 3.2 3.2 0.00 0.00 0.00 42 1014.7
20260905174659 37 245 3.2 4.8 0.00 0.00 0.00 44 1014.7
20260905174154 37 325 8.0 9.7 0.00 0.00 0.00 45 1014.8
20260905173650 36 227 4.8 4.8 0.00 0.00 0.00 46 1015.0
20260905173146 36 173 1.6 1.6 0.00 0.00 0.00 51 1014.9
20260905172645 36 210 8.0 6.4 0.00 0.00 0.00 49 1014.9
20260905172139 36 273 3.2 3.2 0.00 0.00 0.00 48 1015.0
20260905171635 36 272 4.8 4.8 0.00 0.00 0.00 48 1015.0
20260905171131 36 186 1.6 1.6 0.00 0.00 0.00 50 1015.3
20260905170628 35 176 1.6 1.6 0.00 0.00 0.00 53 1015.1
20260905170123 35 191 3.2 4.8 0.00 0.00 0.00 52 1015.2
20260905165617 35 135 1.6 3.2 0.00 0.00 0.00 52 1015.3
20260905165113 35 253 4.8 4.8 0.00 0.00 0.00 52 1015.2
20260905164608 35 358 6.4 4.8 0.00 0.00 0.00 51 1015.4
20260905164107 35 230 3.2 3.2 0.00 0.00 0.00 52 1015.5
20260905163603 35 186 1.6 3.2 0.00 0.00 0.00 54 1015.4
20260905163059 34 171 1.6 1.6 0.00 0.00 0.00 53 1015.6
20260905162555 33 264 3.2 3.2 0.00 0.00 0.00 55 1015.6
20260905162054 34 232 4.8 4.8 0.00 0.00 0.00 54 1015.7
20260905161549 33 234 4.8 4.8 0.00 0.00 0.00 54 1015.6
20260905161047 33 249 4.8 6.4 0.00 0.00 0.00 54 1015.8
20260905160546 33 161 1.6 1.6 0.00 0.00 0.00 58 1015.8
20260905160046 33 213 1.6 1.6 0.00 0.00 0.00 55 1016.0
20260905155545 33 175 1.6 1.6 0.00 0.00 0.00 57 1016.0
20260905155044 33 192 1.6 1.6 0.00 0.00 0.00 57 1015.9
20260905154539 32 235 3.2 3.2 0.00 0.00 0.00 57 1016.1
20260905154035 32 267 4.8 4.8 0.00 0.00 0.00 58 1016.0
20260905153531 32 246 3.2 3.2 0.00 0.00 0.00 60 1016.2
20260905153030 31 216 1.6 1.6 0.00 0.00 0.00 63 1016.5
20260905152525 31 216 1.6 1.6 0.00 0.00 0.00 63 1016.1
20260905152020 31 211 1.6 1.6 0.00 0.00 0.00 64 1016.1
20260905151516 31 178 3.2 3.2 0.00 0.00 0.00 65 1016.1
20260905151011 30 213 1.6 1.6 0.00 0.00 0.00 68 1016.4
20260905150506 29 213 1.6 1.6 0.00 0.00 0.00 70 1016.6
20260905150003 28 213 1.6 1.6 0.00 0.00 0.00 75 1016.0
20260905145457 28 233 1.6 1.6 0.00 0.00 0.00 76 1016.2
20260905144956 27 234 1.6 1.6 0.00 0.00 0.00 79 1016.4
20260905144452 27 237 0.0 0.0 0.00 0.00 0.00 80 1016.2
20260905143951 27 238 0.0 0.0 0.00 0.00 0.00 80 1016.5
20260905143450 27 238 1.6 1.6 0.00 0.00 0.00 81 1016.2
20260905142945 27 237 1.6 1.6 0.00 0.00 0.00 81 1016.4
20260905142443 26 238 0.0 0.0 0.00 0.00 0.00 82 1016.5
20260905141940 26 219 1.6 1.6 0.00 0.00 0.00 82 1016.5
20260905141440 26 217 1.6 1.6 0.00 0.00 0.00 83 1016.6
20260905140936 26 205 0.0 0.0 0.00 0.00 0.00 84 1016.5
20260905140431 26 206 0.0 0.0 0.00 0.00 0.00 85 1016.5
20260905135930 26 206 1.6 1.6 0.00 0.00 0.00 85 1016.5
20260905135426 26 160 1.6 1.6 0.00 0.00 0.00 85 1016.6
20260905134921 26 160 0.0 0.0 0.00 0.00 0.00 85 1016.6
20260905134420 26 160 0.0 0.0 0.00 0.00 0.00 84 1016.6
20260905133915 26 160 0.0 0.0 0.00 0.00 0.00 85 1016.6
20260905133414 26 160 0.0 0.0 0.00 0.00 0.00 85 1016.6
20260905132914 26 160 0.0 0.0 0.00 0.00 0.00 85 1016.7
20260905132410 26 160 0.0 0.0 0.00 0.00 0.00 85 1016.6
20260905131904 26 160 0.0 0.0 0.00 0.00 0.00 85 1016.5
20260905131400 26 160 0.0 0.0 0.00 0.00 0.00 85 1016.6
20260905130855 25 160 0.0 0.0 0.00 0.00 0.00 85 1016.7
20260905130354 25 160 1.6 1.6 0.00 0.00 0.00 85 1016.5